Simultaneous Nadir Overpasses (SNOs) Predictions

Prediction of SNOs between LANDSAT-8 and METOP-B Satellite Orbit:

Table of predicted SNOs for the next 14.0 days since TLE Epoch: 12/26/2014
Index Date (LANDSAT-8) Time (LANDSAT-8) Lat,Lon (LANDSAT-8) SZA (LANDSAT-8 ) Date (METOP-B) Time (METOP-B) Lat,Lon (METOP-B) SZA (METOP-B ) Distance(km) Time Diff (sec)
1 12/29/2014 11:20:11 -81.06,-131.30 73.95 12/29/2014 11:19:54 -81.05,-131.34 73.97 0.97 17
2 12/29/2014 12:09:36 81.09, 36.76 106.11 12/29/2014 12:10:32 81.09, 36.88 106.15 2.13 56
3 01/01/2015 06:54:24 -81.04, -65.11 74.22 01/01/2015 06:54:19 -81.05, -65.11 74.21 0.60 5
4 01/01/2015 07:43:49 81.07, 102.93 105.84 01/01/2015 07:44:58 81.07, 102.73 105.85 3.31 69
5 01/04/2015 01:39:09 81.03,-166.43 105.49 01/04/2015 01:38:03 81.03,-166.36 105.47 1.16 66
6
